Flag for China Weather past 2 weeks in Hohhot, Inner Mongolia, China

Now
28 °F

Clear.


Feels Like: 28 °F
Forecast: 10 / 44 °F
Wind: 1 mph from Southwest

Location: Hohhot Airport

Current Time: Mar 5, 2015 at 8:41:57 PM

Latest Report: Mar 5, 2015 at 8:00 PM


Visibility: 4 mi

Pressure: 30.01 "Hg

Humidity: 55%

Dew point: 14 °F

Location of HohhotLocation

Historic Weather in Hohhot — Graph

°F

Hohhot temperature yesterday

Maximum temperature yesterday: 30 °F (at 3:00 PM)
Minimum temperature yesterday: 3 °F (at 4:00 AM)
Average temperature yesterday: 16 °F

Past Weeks' High & Low Weather Summary

 TemperatureHumidityPressure
High39 °F (Mar 5, 4:00 PM)100% (Feb 19, 9:00 AM)30.30 "Hg (Feb 19, 9:00 AM)
Low-2 °F (Feb 22, 7:00 AM)23% (Feb 18, 7:00 PM)29.80 "Hg (Feb 24, 2:00 PM)
Average20 °F62%30.08 "Hg
* Reported Feb 18 7:00 PM — Mar 5 7:00 PM, Hohhot, Weather by CustomWeather, © 2015

Note: Actual official high and low records may vary slightly from our data, if they occured in-between our weather recording intervals... More about our weather records

Advertising

Hohhot weather history for previous 24 hours

 ConditionsComfort  
Time TempWeatherWind HumidityBarometerVisibility
7:00 PM
Thu, Mar 5
28 °FClear.6 mph55%29.98 "Hg5 mi
6:00 PM36 °FSunny.10 mph41%29.98 "Hg10 mi
5:00 PM37 °FSunny.13 mph41%29.98 "Hg10 mi
4:00 PM39 °FPassing clouds.13 mph39%29.98 "HgN/A
3:00 PM37 °FSunny.10 mph38%30.01 "Hg10 mi
2:00 PM36 °FPassing clouds.13 mph35%30.04 "HgN/A
1:00 PM34 °FPassing clouds.8 mph27%30.07 "HgN/A
12:00 PM32 °FPassing clouds.3 mph32%30.09 "HgN/A
11:00 AM28 °FSunny.3 mph37%30.12 "Hg10 mi
10:00 AM27 °FSunny.3 mph46%30.12 "Hg10 mi
9:00 AM19 °FSunny.3 mph58%30.15 "Hg10 mi
8:00 AM12 °FSunny.6 mph73%30.12 "Hg10 mi
6:00 AM9 °FClear.6 mph72%30.12 "Hg10 mi
5:00 AM10 °FClear.6 mph72%30.12 "Hg10 mi
4:00 AM10 °FClear.6 mph72%30.12 "Hg10 mi
3:00 AM9 °FClear.6 mph78%30.15 "Hg10 mi
2:00 AM12 °FClear.1 mph73%30.18 "Hg10 mi
1:00 AM14 °FClear.1 mph67%30.18 "Hg10 mi
12:00 AM14 °FPassing clouds.6 mph67%30.15 "HgN/A
11:00 PM
Wed, Mar 4
16 °FClear.6 mph62%30.18 "Hg10 mi
10:00 PM16 °FPassing clouds.6 mph62%30.18 "HgN/A
9:00 PM19 °FPassing clouds.6 mph58%30.15 "HgN/A
8:00 PM23 °FClear.6 mph42%30.15 "Hg10 mi
Weather by CustomWeather, © 2015

See weather overviewHow to use our weather pages